Weather Service Report


512 
ASUS41 KAKQ 030015
RWRAKQ

REGIONAL WEATHER ROUNDUP
NATIONAL WEATHER SERVICE WAKEFIELD VA
700 PM EST FRI DEC 02 2016

Note: "fair" indicates few or no clouds below 12,000 feet with no
significant weather and/or obstructions to visibility. * = Denotes
station may not report precipitation (e.g., rain,snow,etc.),
thunder or fog.

VAZ042-051-052>054-056-030100-
NORTHERN VIRGINIA
  
CITY           SKY/WX    TMP DP  RH WIND       PRES   REMARKS
WASH NATIONAL  MOCLDY    46  28  49 NW15G28   30.11R                  
DULLES         CLOUDY    43  28  55 NW15      30.11R                  
FORT BELVOIR   MOCLDY    44  28  53 NW17      30.10R                  
QUANTICO       CLEAR     44  29  55 N9        30.11R                  
FREDERICKSBRG* PTCLDY    45  32  60 NW9G16    30.09R                  
STAFFORD*      PTCLDY    42  31  65 N9        30.13S                  
WARRENTON      CLEAR     43  26  52 NW12G18   30.09R                  
CULPEPER*      PTCLDY    44  31  60 NW10      30.11R                  
MANASSAS*      NOT AVBL                                               
LEESBURG*      CLOUDY    43  32  65 W13G21    30.12R                  
WINCHESTER     CLOUDY    39  27  60 W10G24    30.10F                  
FRONT ROYAL*   CLOUDY    41  28  60 W6        30.11S                  
LURAY*         CLOUDY    41  32  70 W5        30.11S                  
$$

VAZ048-049-060>072-079>083-030100-
CENTRAL AND SOUTH CENTRAL VIRGINIA
  
CITY           SKY/WX    TMP DP  RH WIND       PRES   REMARKS
RICHMOND       CLEAR     48  31  51 SW5       30.07R                  
CHESTERFIELD*  FAIR      45  21  39 W5        30.09R                  
PETERSBURG*    CLEAR     42  31  65 W6        30.08R                  
HANOVER        CLEAR     41  33  73 NW3       30.09R                  
TAPPAHANNOCK*  CLEAR     43  29  58 CALM      30.08R                  
QUINTON*       FAIR      41  32  71 N10       30.06S                  
CHARLOTTSVILLE PTCLDY    45  28  51 CALM      30.10R                  
GORDONSVILLE*  FAIR      46  30  54 NW8       30.09R                  
ORANGE*          N/A     45  30  57 W3        30.11R                  
LOUISA*        CLEAR     48  34  57 W7        30.08R                  
BUMPASS*       FAIR      45  31  58 W5        30.09R                  
FARMVILLE*     CLEAR     47  31  53 W5        30.09R                  
CREWE*         FAIR      47  31  53 NW6       30.08S                  
FORT PICKETT*  FAIR      44  25  47 W6        30.09R                  
CHASE CITY*    FAIR      46  29  51 NW3       30.10R                  
CLARKSVILLE*   FAIR      45  32  61 CALM      30.10R                  
SOUTH HILL*    CLEAR     37  33  87 CALM      30.15R                  
LAWRENCEVILLE* FAIR      41  33  74 CALM      30.09R                  
EMPORIA*       CLEAR     41  32  70 SW3       30.11R                  
$$

VAZ088>098-030100-
SOUTHEAST VIRGINIA
  
CITY           SKY/WX    TMP DP  RH WIND       PRES   REMARKS
NORFOLK        CLEAR     50  33  52 W3        30.07R                  
VIRGINIA BEACH CLEAR     43  31  62 SW5       30.06R                  
NORFOLK NAVAL  PTCLDY    50  34  54 SW7       30.08R                  
WEST POINT*    CLEAR     37  32  82 CALM      30.08S                  
SALUDA*        FAIR      41  35  79 CALM      30.05S                  
NEWPORT NEWS   CLEAR     45  32  60 CALM      30.07R                  
LANGLEY AFB    CLEAR     44  35  70 SW5       30.06R                  
FORT EUSTIS    CLEAR     47  34  60 W5        30.04R                  
WILLIAMSBURG*  CLEAR     45  36  70 CALM      30.07S                  
HR EXEC AP*    FAIR      34  28  80 CALM      30.06R                  
FRANKLIN*      CLEAR     40  34  77 CALM      30.09R                  
US460-WAKEFLD  CLEAR     39  35  86 CALM      30.08R                  
$$

VAZ020-022-025-037-045-030100-
WEST CENTRAL AND SOUTHWEST VIRGINIA
  
CITY           SKY/WX    TMP DP  RH WIND       PRES   REMARKS
STAUNTON*      CLOUDY    39  28  63 NW8       30.13R                  
WAYNESBORO*    MOCLDY    39  27  62 W6        30.10R                  
HOT SPRINGS VA NOT AVBL                                               
LYNCHBURG      CLEAR     43  29  57 NW5       30.12R                  
DANVILLE       CLEAR     46  32  58 N7        30.12R                  
SOUTH BOSTON*  FAIR      46  29  50 NW7       30.12R                  
MARTINSVILLE   CLEAR     37  29  73 CALM      30.15R                  
ROANOKE        PTCLDY    44  28  53 NW17G29   30.14R                  
BLACKSBURG     CLEAR     39  30  69 NW13G22   30.14R                  
DUBLIN*        PTCLDY    41  30  65 NW8       30.15R                  
MARION*        CLEAR     42  24  49 W16       30.15R                  
HILLSVILLE*    CLEAR     41  24  51 NW17G23   30.10R                  
RICHLANDS*     FAIR      38  28  67 NW7       30.17R                  
WISE*          CLEAR     39  27  60 W5        30.20R                  
ABINGDON*      CLEAR     42  26  51 W5        30.19R                  
$$

MDZ021>025-VAZ099-100-030100-
SOUTHERN MARYLAND AND THE DELMARVA PENINSULA
  
CITY           SKY/WX    TMP DP  RH WIND       PRES   REMARKS
PATUXENT RIVER PTCLDY    46  29  51 NW18      30.08R                  
BAY BRIDGE APT PTCLDY    45  30  57 NW18      30.09R                  
LEONARDTOWN    CLEAR     45  30  57 NW6       30.09R                  
DOVER          CLEAR     44  29  56 W15       30.03R                  
GEORGETOWN     CLEAR     45  28  51 NW7       30.05R                  
EASTON         CLEAR     45  28  53 NW13G20   30.11R                  
CAMBRIDGE      CLEAR     45  30  57 NW12G22   30.07R                  
SALISBURY      CLEAR     44  30  57 NW6       30.06R                  
OCEAN CITY     CLEAR     42  30  62 NW8       30.06R                  
WALLOPS ISLAND MOCLDY    43  35  73 NW6       30.06R                  
ACCOMACK*      CLEAR     40  37  88 CALM      30.05R                  
$$

NCZ012>017-030>032-030100-
NORTH CENTRAL AND EASTERN NORTH CAROLINA
  
CITY           SKY/WX    TMP DP  RH WIND       PRES   REMARKS
ROANOKE RAPIDS FAIR      43  34  70 SW3       30.10R                  
RALEIGH        PTCLDY    46  31  55 W5        30.11S                  
ELIZABETH CITY CLEAR     40  33  76 SW6       30.09R                  
AHOSKIE*       CLEAR     41  35  79 CALM      30.10R                  
EDENTON*       CLEAR     51  37  58 CALM      30.10R                  
CURRITUCK*     CLEAR     44  38  78 CALM      30.08R                  
KILL DEVIL HLS CLEAR     50  40  68 CALM      30.07S                  
MANTEO         CLEAR     50  38  63 W3        30.09R                  
CAPE HATTERAS  CLEAR     52  34  50 NW9       30.10R                  
TARBORO*       NOT AVBL                                               
GOLDSBORO      CLEAR     45  34  65 CALM      30.10R                  
WASHINGTON     CLEAR     43  34  71 CALM      30.11S                  
GREENVILLE     CLEAR     45  34  65 CALM      30.13R                  
NEW BERN       CLEAR     44  37  76 CALM      30.13R                  
WILMINGTON     CLEAR     44  40  85 CALM      30.14R                  
$$

VAZ048-030100-
ELSEWHERE
  
CITY           SKY/WX    TMP DP  RH WIND       PRES   REMARKS
HARRISBURG PA  CLOUDY    43  30  60 W10       30.01S                  
BALTIMORE      CLOUDY    44  28  53 W12       30.09R                  
ANNAPOLIS      MOCLDY    47  30  51 W9G23     30.09R                  
ANDREWS AFB    CLEAR     43  26  51 NW26      30.07R                  
PHILADELPHIA   MOCLDY    45  27  49 W20G26    30.01R                  
GREENSBORO     CLEAR     45  26  47 NW7       30.12R                  
ROCKY MOUNT    CLEAR     40  36  86 CALM      30.11R                  
$$

VAZ100-030100-
MARINE
  
STATION/POSITION TIME  TEMP    WIND        PRES    WAVE   SWELL
                       AIR SEA DIR/SP/G            HT/PER HT/PER
                 (UTC) (F)     (DEG/KT/KT) (MB)    (FT/S) (FT/S)
THOMAS POINT MD  0000   45 50  310/ 19/ 25   N/A
GOOSES REEF MD   2310   48     360/ 17/ 23 1018.4
POTOMAC MD       2310   52     290/  8/ 10 1016.4
STINGRAY PT      2310   51     290/  6/  8 1017.8
JAMESTOWN VA     2310   51     250/  6/ 10   N/A
CAPE HENRY BUOY  2312      56                N/A     2/ 7
1ST LANDING BUOY 2310   53                 1017.5
CAPE CHARLES BUO 2256      56                N/A     2/ 3
OFFSHORE WE BUOY 2251      57                N/A     3/ 8
64NM E OF VA BCH 2350   52 60  280/ 10/ 12 1017.7R   3/ 5   3/ 5
44100 DUCK FRF   2305      57                N/A     3/ 5
DIAMOND SHLS NC  2350   56 76  300/ 16/ 19 1018.7S   3/ 7   3/ 7
CAPE LOOKOUT NC  2300   55     300/ 11/ 14 1019.2R
$$
  

Return to Home page


Western Regional Climate Center, wrcc@dri.edu